Volver al catálogo

COSMOS 397 DEB

ActivoLEO
NORAD 5015·DEBRIS·🇷🇺 Russia

Lanzado Feb 25, 1971 desde Baikonur Cosmodrome

Loading…

Próximos Pases (próximas 24 horas)

TLE

ActualizadoSource: Space-Track

Época: Sep 14, 2026, 14:19 UTC

1 05015U 71015J   26257.59683751  .00001648  00000-0  47525-3 0  9996
2 05015  65.7084   1.8463 0642361 283.9634  69.0833 13.67602549677015

Sigue COSMOS 397 DEB en tiempo real con AllMySat

Download on the App Store